Location: Iesi
(43.5167°N, 13.2333°E)
Time: 02:20:22
(UTC+00:00)

Cosmos 1697 Rocket - Pass Details

Date: 08 August 2020
Orbit: 833 x 842 km, 71.0° (Epoch: 27 September)

Event Time Altitude Azimuth Distance (km) Brightness Sun altitude
Rises 20:53:14 0° 326° (NW) 3,388 7.3 -22.6°
Reaches altitude 10° 20:55:54 10° 317° (NW) 2,450 6.2 -22.9°
Maximum altitude 21:00:47 32° 256° (WSW) 1,402 4.0 -23.4°
Enters shadow 21:03:10 23° 215° (SW) 1,707 4.1 -23.7°
